DELTA 1 DEB, 21437

Orbit data source: Space-Track

DELTA 1 DEB, 21437 is space debris in SSO originally from a launch on Thu, 12 Jun 1975 UTC launched from the Air Force Western Test Range (AFWTR). Debris objects in space refer to the collection of defunct objects orbiting the Earth. Examples of debris include non-operational satellites, rocket bodies, and fragments generated from explosions, collisions, or faulty payload assembly.

Loading next visibility...
Identifier
21437, 1975-052DV
Orbit
SSO
Country
Flag of USUS
Related business
Manufacturer
Unknown
Mission
Spacecraft
Bus & Motor
Unknown
Mass
Unknown
Launch date (UTC)
1975-06-12 (51 years ago)
Launch vehicle
Unknown
Launch site
Air Force Western Test Range (AFWTR)
Object type
Payload
Rocket body
Debris
Shape & HBR
Unknown shape, 0.1 m
Radar Cross Section
Medium (>0.1 m² and <1 m²)

Expand to show TLE details & history
Last TLE update: 1 day ago

TLE from 1 day ago
0 DELTA 1 DEB
1 21437U 75052DV  26167.98900685  .00000129  00000-0  32845-3 0  9990
2 21437 100.1894  69.3275 0056976  90.3875 290.8730 13.37502881712398
Epoch: 2026-06-16T23:44Z
TLE epoch observation values (Epoch: 2026-06-16T23:44:10.191Z)
Latitude
20.31475°
Longitude
164.23622°
Altitude
1,105.966 km
Speed
7.308 km/s
True Right ascension
04h 22m 07s
True Declination
20° 12' 30"
Sunlit
Object was in daylight at epoch
Visualization orbit readout
Latitude
Unknown
Longitude
Unknown
Altitude
Unknown
Speed
Unknown
Apparent Right ascension
Unknown
Apparent Declination
Unknown
Sunlit
N/A
Visualization observer readout
Local Sidereal Time
20:24:51
Azimuth
Unknown
Elevation
Unknown
Doppler factor
Unknown
Orbital elements
Apogee altitude
1,158.637 km
Perigee altitude
1,073.241 km
Semi-major axis
7,494.076 km
Eccentricity
0.0057
Inclination
100.1894°
RAAN
69.3275°
Arg. of periapsis
90.3875°
True anomaly
290.26141°
Mean anomaly
290.873°
Eccentric anomaly
290.56736°
Mean motion
3.34554 °/min
Orbital period
107.61 mins
BSTAR
0.00032845
Loading maneuver chart data...
Computing Atmospheric mass density...
Loading historical data...
Loading historical data...
Loading historical data...
Loading historical data...
Loading historical data...
Loading historical data...
Loading historical data...

Documentation

Showing up to 5 results
|